| time (UTC) | temp F | wind direction | speed MPH | gust MPH | rain 1hr in | rain 24hr in | rain mn in | humidity % | barometer mb |
| 20260505022949 | 64 | 273 | 2.0 | 4.0 | 0.00 | 0.00 | 0.00 | 50 | 1017.1 |
| 20260505015948 | 65 | 201 | 2.0 | 6.0 | 0.00 | 0.00 | 0.00 | 50 | 1017.0 |
| 20260505012949 | 66 | 142 | 2.0 | 4.0 | 0.00 | 0.00 | 0.00 | 49 | 1016.6 |
| 20260505005948 | 67 | 284 | 4.0 | 6.0 | 0.00 | 0.00 | 0.00 | 47 | 1016.3 |
| 20260505002949 | 69 | 294 | 2.0 | 6.0 | 0.00 | 0.00 | 0.00 | 46 | 1015.8 |
| 20260504235948 | 70 | 236 | 2.0 | 11.0 | 0.00 | 0.00 | 0.00 | 43 | 1015.6 |
| 20260504232949 | 72 | 48 | 3.0 | 13.0 | 0.00 | 0.00 | 0.00 | 41 | 1015.8 |
| 20260504225948 | 73 | 277 | 8.0 | 13.0 | 0.00 | 0.00 | 0.00 | 39 | 1015.4 |
| 20260504224324 | 74 | 165 | 3.0 | 12.0 | 0.00 | 0.00 | 0.00 | 38 | 1015.2 |
| 20260504215948 | 75 | 191 | 2.0 | 12.0 | 0.00 | 0.00 | 0.00 | 35 | 1015.4 |
| 20260504212949 | 75 | 271 | 4.0 | 17.0 | 0.00 | 0.00 | 0.00 | 32 | 1015.3 |
| 20260504205949 | 75 | 256 | 3.0 | 13.0 | 0.00 | 0.00 | 0.00 | 31 | 1015.4 |
| 20260504202949 | 75 | 9 | 2.0 | 12.0 | 0.00 | 0.00 | 0.00 | 31 | 1015.9 |
| 20260504195951 | 76 | 182 | 2.0 | 10.0 | 0.00 | 0.00 | 0.00 | 32 | 1016.3 |
| 20260504192949 | 76 | 208 | 2.0 | 9.0 | 0.00 | 0.00 | 0.00 | 32 | 1016.3 |
| 20260504185949 | 76 | 174 | 3.0 | 9.0 | 0.00 | 0.00 | 0.00 | 34 | 1016.9 |
| 20260504182949 | 75 | 28 | 4.0 | 6.0 | 0.00 | 0.00 | 0.00 | 35 | 1017.2 |
| 20260504175949 | 73 | 33 | 4.0 | 10.0 | 0.00 | 0.00 | 0.00 | 37 | 1017.6 |
| 20260504174332 | 72 | 42 | 5.0 | 9.0 | 0.00 | 0.00 | 0.00 | 38 | 1017.6 |
| 20260504042949 | 48 | 80 | 1.0 | 4.0 | 0.00 | 0.00 | 0.00 | 65 | 1019.5 |
| 20260504035948 | 49 | 89 | 0.0 | 4.0 | 0.00 | 0.00 | 0.00 | 62 | 1019.5 |
| 20260504032949 | 50 | 94 | 2.0 | 3.0 | 0.00 | 0.00 | 0.00 | 60 | 1018.9 |
| 20260504025949 | 52 | 120 | 0.0 | 3.0 | 0.00 | 0.00 | 0.00 | 56 | 1019.3 |